| time (UTC) | temp C | wind direction | speed KPH | gust KPH | rain 1hr cm | rain 24hr cm | rain mn cm | humidity % | barometer mb |
| 20260505091544 | 11 | 235 | 3.2 | 12.9 | 0.00 | 0.00 | 0.00 | 90 | 1013.5 |
| 20260505090142 | 11 | 228 | 3.2 | 9.7 | 0.00 | 0.00 | 0.00 | 90 | 1013.4 |
| 20260505084551 | 11 | 220 | 1.6 | 6.4 | 0.00 | 0.00 | 0.00 | 90 | 1013.4 |
| 20260505083054 | 11 | 220 | 1.6 | 8.0 | 0.00 | 0.00 | 0.00 | 90 | 1013.3 |
| 20260505081542 | 10 | 210 | 1.6 | 4.8 | 0.00 | 0.00 | 0.00 | 90 | 1013.2 |
| 20260505080045 | 11 | 228 | 0.0 | 1.6 | 0.00 | 0.00 | 0.00 | 89 | 1013.2 |
| 20260505074536 | 11 | 206 | 0.0 | 3.2 | 0.00 | 0.00 | 0.00 | 89 | 1013.1 |
| 20260505073036 | 11 | 230 | 0.0 | 3.2 | 0.00 | 0.00 | 0.00 | 89 | 1012.9 |
| 20260505071543 | 11 | 230 | 0.0 | 4.8 | 0.00 | 0.00 | 0.00 | 88 | 1012.6 |
| 20260505070030 | 11 | 209 | 0.0 | 4.8 | 0.00 | 0.00 | 0.00 | 88 | 1012.6 |
| 20260505064533 | 11 | 232 | 1.6 | 6.4 | 0.00 | 0.00 | 0.00 | 87 | 1012.5 |
| 20260505063027 | 12 | 276 | 0.0 | 1.6 | 0.00 | 0.00 | 0.00 | 87 | 1012.4 |
| 20260505061529 | 12 | 301 | 0.0 | 0.0 | 0.00 | 0.00 | 0.00 | 86 | 1012.2 |
| 20260505060033 | 12 | 260 | 1.6 | 11.3 | 0.00 | 0.00 | 0.00 | 85 | 1012.1 |
| 20260505054522 | 12 | 268 | 3.2 | 12.9 | 0.00 | 0.00 | 0.00 | 84 | 1011.8 |
| 20260505053025 | 12 | 254 | 4.8 | 14.5 | 0.00 | 0.00 | 0.00 | 83 | 1011.8 |
| 20260505051520 | 13 | 236 | 1.6 | 8.0 | 0.00 | 0.00 | 0.00 | 82 | 1011.7 |
| 20260505041517 | 15 | 240 | 4.8 | 17.7 | 0.00 | 0.00 | 0.00 | 76 | 1011.1 |
| 20260505040017 | 15 | 236 | 11.3 | 24.1 | 0.00 | 0.00 | 0.00 | 74 | 1011.0 |
| 20260505034516 | 16 | 262 | 4.8 | 17.7 | 0.00 | 0.00 | 0.00 | 71 | 1010.8 |
| 20260505033019 | 16 | 289 | 11.3 | 22.5 | 0.00 | 0.00 | 0.00 | 69 | 1010.5 |
| 20260505031517 | 17 | 276 | 6.4 | 19.3 | 0.00 | 0.00 | 0.00 | 66 | 1010.3 |
| 20260505030015 | 18 | 251 | 8.0 | 16.1 | 0.00 | 0.00 | 0.00 | 63 | 1010.1 |
| 20260505024514 | 20 | 273 | 4.8 | 17.7 | 0.00 | 0.00 | 0.00 | 61 | 1009.9 |
| 20260505023014 | 20 | 281 | 8.0 | 17.7 | 0.00 | 0.00 | 0.00 | 59 | 1009.7 |
| 20260505021514 | 20 | 259 | 6.4 | 17.7 | 0.00 | 0.00 | 0.00 | 57 | 1009.7 |
| 20260505020017 | 21 | 285 | 9.7 | 19.3 | 0.00 | 0.00 | 0.00 | 54 | 1009.6 |
| 20260505014520 | 22 | 270 | 8.0 | 24.1 | 0.00 | 0.00 | 0.00 | 53 | 1009.7 |
| 20260505013011 | 22 | 251 | 12.9 | 20.9 | 0.00 | 0.00 | 0.00 | 53 | 1009.6 |
| 20260505011511 | 22 | 312 | 11.3 | 25.7 | 0.00 | 0.00 | 0.00 | 52 | 1009.6 |
| 20260505010010 | 23 | 305 | 12.9 | 25.7 | 0.00 | 0.00 | 0.00 | 52 | 1009.6 |
| 20260505004514 | 23 | 280 | 11.3 | 22.5 | 0.00 | 0.00 | 0.00 | 51 | 1009.5 |
| 20260505003005 | 23 | 308 | 11.3 | 17.7 | 0.00 | 0.00 | 0.00 | 51 | 1009.5 |
| 20260505001505 | 24 | 289 | 4.8 | 17.7 | 0.00 | 0.00 | 0.00 | 52 | 1009.4 |
| 20260505000008 | 23 | 321 | 9.7 | 22.5 | 0.00 | 0.00 | 0.00 | 52 | 1009.4 |
| 20260504234504 | 23 | 262 | 12.9 | 20.9 | 0.00 | 0.00 | 0.00 | 51 | 1009.4 |
| 20260504233003 | 24 | 290 | 9.7 | 19.3 | 0.00 | 0.00 | 0.00 | 51 | 1009.5 |
| 20260504231502 | 24 | 280 | 8.0 | 20.9 | 0.00 | 0.00 | 0.00 | 51 | 1009.7 |
| 20260504230003 | 24 | 284 | 11.3 | 19.3 | 0.00 | 0.00 | 0.00 | 49 | 1009.8 |
| 20260504224502 | 24 | 207 | 11.3 | 19.3 | 0.00 | 0.00 | 0.00 | 49 | 1009.9 |
| 20260504223000 | 25 | 258 | 6.4 | 17.7 | 0.00 | 0.00 | 0.00 | 49 | 1009.9 |
| 20260504221603 | 24 | 266 | 8.0 | 19.3 | 0.00 | 0.00 | 0.00 | 50 | 1010.0 |
| 20260504220106 | 23 | 305 | 14.5 | 19.3 | 0.00 | 0.00 | 0.00 | 49 | 1010.1 |
| 20260504214606 | 24 | 308 | 11.3 | 19.3 | 0.00 | 0.00 | 0.00 | 48 | 1010.3 |
| 20260504213059 | 24 | 288 | 11.3 | 24.1 | 0.00 | 0.00 | 0.00 | 49 | 1010.3 |
| 20260504211557 | 23 | 12 | 4.8 | 19.3 | 0.00 | 0.00 | 0.00 | 49 | 1010.3 |
| 20260504210105 | 24 | 310 | 8.0 | 16.1 | 0.00 | 0.00 | 0.00 | 48 | 1010.3 |
| 20260504204611 | 24 | 306 | 4.8 | 16.1 | 0.00 | 0.00 | 0.00 | 47 | 1010.4 |
| 20260504203124 | 23 | 333 | 9.7 | 20.9 | 0.00 | 0.00 | 0.00 | 47 | 1010.6 |
| 20260504201553 | 23 | 334 | 6.4 | 20.9 | 0.00 | 0.00 | 0.00 | 50 | 1010.6 |
| 20260504200052 | 23 | 198 | 3.2 | 8.0 | 0.00 | 0.00 | 0.00 | 49 | 1010.7 |
| 20260504194550 | 23 | 266 | 8.0 | 17.7 | 0.00 | 0.00 | 0.00 | 50 | 1010.7 |
| 20260504193050 | 22 | 213 | 1.6 | 16.1 | 0.00 | 0.00 | 0.00 | 51 | 1010.8 |
| 20260504191545 | 22 | 253 | 12.9 | 16.1 | 0.00 | 0.00 | 0.00 | 52 | 1010.9 |
| 20260504190042 | 21 | 312 | 3.2 | 12.9 | 0.00 | 0.00 | 0.00 | 54 | 1011.0 |
| 20260504184541 | 21 | 318 | 8.0 | 16.1 | 0.00 | 0.00 | 0.00 | 53 | 1011.2 |
| 20260504183038 | 21 | 303 | 1.6 | 12.9 | 0.00 | 0.00 | 0.00 | 52 | 1011.2 |
| 20260504181534 | 21 | 200 | 6.4 | 14.5 | 0.00 | 0.00 | 0.00 | 52 | 1011.3 |
| 20260504180030 | 20 | 231 | 1.6 | 9.7 | 0.00 | 0.00 | 0.00 | 54 | 1011.2 |
| 20260504174527 | 20 | 254 | 1.6 | 8.0 | 0.00 | 0.00 | 0.00 | 56 | 1011.4 |
| 20260504173022 | 19 | 253 | 1.6 | 12.9 | 0.00 | 0.00 | 0.00 | 57 | 1011.3 |
| 20260504171519 | 18 | 206 | 3.2 | 12.9 | 0.00 | 0.00 | 0.00 | 59 | 1011.4 |
| 20260504160109 | 16 | 258 | 4.8 | 12.9 | 0.00 | 0.00 | 0.00 | 67 | 1011.0 |